SCP
0 0 0 0 0 0 0 0 0 0 0 0 0 0 0 0 0 0 0 0 0 0 0 0 0 0 0 0 0 0 0 0 0 0 0 0 0 0 0 0 0 0 0 0
0 0 0 0 0 0 0 0 0 0 0 0 0 0 0 0 0 0 0 0 0 0 0 0 0 0 0 0 0 0 0 0 0 0 0 0 0 0 0 0 0 0 0 0
0 0 0 0 0 0 0 0 0 0 0 0 0 0 0 0 0 0 0 0 0 0 0 1 0 0 0 0 0 0 0 0 0 0 0 0 0 0 0 0 0 0 0 0
0 0 0 0 0 0 0 0 0 0 0 0 0 0 0 0 0 0 0 0 0 0 0 0 0 0 0 0 0 0 0 0 0 0 0 0 0 0 0 0 0 0 0 0
0 0 0 0 0 0 0 0 0 0 0 0 0 0 0 0 0 0 0 0 0 0 0 0 0 1 1 0 0 0 0 0 0 0 0 0 0 0 0 0 0 0 0 0
0 0 0 0 0 0 0 0 0 0 0 0 0 0 0 0 0 0 0 0 0 0 0 0 0 1 1 1 0 0 0 0 0 0 0 0 0 0 0 0 0 0 0 0
0 0 0 0 0 0 0 0 0 0 0 0 0 0 0 0 0 0 0 0 0 0 0 0 0 1 1 1 0 0 0 0 0 0 0 0 0 0 0 0 0 0 0 0
0 0 0 0 0 0 0 0 0 0 0 0 0 0 0 0 0 0 0 0 0 0 0 0 0 1 1 0 0 0 0 0 0 0 0 0 0 0 0 0 0 0 0 0
0 0 0 0 0 0 0 0 0 0 0 0 0 0 0 0 0 0 0 0 0 0 0 0 0 0 0 0 0 0 0 0 0 0 0 0 0 0 0 0 0 0 0 0
0 0 0 0 0 0 0 0 0 0 0 0 0 0 0 0 0 0 0 0 0 0 0 0 0 0 0 0 0 0 0 0 0 0 0 0 0 0 0 0 0 0 0 0
0 0 0 0 0 0 0 0 0 0 0 0 0 0 0 0 0 0 0 0 0 0 0 0 0 0 0 0 0 0 0 0 0 0 0 0 0 0 0 0 0 0 0 0
0 0 0 0 0 0 0 0 0 0 0 0 0 0 0 0 0 0 0 0 0 0 0 0 0 0 0 0 0 0 0 0 0 0 0 0 0 0 0 0 0 0 0 0
0 0 0 0 0 0 0 0 0 0 0 0 0 0 0 0 0 0 0 0 0 0 0 0 0 0 0 0 0 0 0 0 0 0 0 0 0 1 0 0 0 0 0 0
0 0 0 0 0 0 0 0 0 0 0 0 0 0 0 0 0 0 0 0 0 0 0 0 0 0 0 0 0 0 0 0 0 0 0 0 0 0 1 0 0 0 0 0
0 0 0 0 0 0 0 0 0 0 0 0 0 0 0 0 0 0 0 0 0 0 0 0 0 0 0 0 0 0 0 0 0 0 0 0 0 0 0 0 0 0 0 0
0 0 0 0 0 0 0 0 0 0 0 0 0 0 0 0 0 0 0 0 0 0 0 0 0 0 0 0 0 0 0 0 0 0 0 0 0 0 0 0 0 0 0 0
0 0 0 0 0 0 0 0 0 0 0 0 0 0 0 0 0 0 0 0 0 0 0 0 0 0 0 0 0 0 0 0 0 0 0 0 0 0 0 0 0 0 0 0
0 0 0 0 0 0 0 0 0 0 0 0 0 0 0 0 0 0 0 0 0 0 0 0 0 0 0 0 0 0 0 0 0 0 0 0 0 0 0 0 0 0 0 0
0 0 0 0 0 0 0 0 0 0 0 0 0 0 0 0 0 0 0 0 0 0 0 0 0 0 0 0 0 0 0 0 0 0 0 0 0 0 0 0 0 0 0 0
0 0 0 0 0 0 0 0 0 0 0 0 0 0 0 0 0 0 0 0 0 0 0 0 0 0 0 0 0 0 0 0 0 0 0 0 0 0 0 0 0 0 0 0
0 0 0 0 0 0 0 0 0 0 0 0 0 0 0 0 0 0 0 0 0 0 0 0 0 0 0 0 0 0 0 0 0 0 0 0 0 0 0 0 0 0 0 0
0 0 0 0 0 0 0 0 0 0 0 0 0 0 0 0 0 0 0 0 0 0 0 0 0 0 0 0 0 0 0 0 0 0 0 0 0 0 0 0 0 0 0 0
0 0 0 0 0 0 0 0 0 0 0 0 0 0 0 0 0 0 0 0 0 0 0 0 0 0 0 0 0 0 0 0 0 0 0 0 0 0 0 0 0 0 0 0
0 0 0 0 0 0 0 0 0 0 0 0 0 0 0 0 0 0 0 0 0 0 0 0 0 0 0 0 0 0 0 0 0 0 0 0 0 0 0 0 0 0 0 0
0 0 0 0 0 0 0 0 0 0 0 0 0 0 0 0 0 0 0 0 0 0 0 0 0 0 0 0 0 0 0 0 0 0 0 0 0 0 0 0 0 0 0 0
0 0 0 0 0 0 0 0 0 0 0 0 0 0 0 0 0 0 0 0 0 0 0 0 0 0 0 0 0 0 0 0 0 0 0 0 0 0 0 0 0 0 0 0
Wind_Speed
6 6 6 6 3 1 3 4 4 3 1 3 2 1 3 3 1 1 2 4 6 6 6 6 6 7 8 8 7 7 7 6 4 2 2 1 1 2 2 2 2 3 4 5
8 6 4 4 3 3 4 4 4 4 2 1 0 3 6 6 4 3 2 1 2 4 5 6 6 7 8 8 8 8 7 6 5 2 2 1 2 2 2 2 2 3 4 4
5 6 5 5 5 5 4 2 3 2 2 2 2 7 8 7 6 6 4 3 2 1 3 4 5 6 7 8 8 7 7 7 6 5 2 2 2 3 2 2 2 3 4 4
4 5 6 5 4 3 4 1 0 1 3 4 0 6 8 6 7 8 6 5 4 2 0 1 3 5 6 7 7 7 7 7 6 6 4 4 3 3 3 3 2 3 3 4
5 5 5 4 3 2 3 2 1 1 2 4 2 4 7 6 7 8 7 6 4 3 2 1 1 2 3 4 6 6 7 7 6 6 5 5 5 3 3 3 4 4 3 4
4 3 1 1 2 2 4 5 4 3 4 5 4 2 7 7 7 7 7 7 6 4 3 2 1 1 2 3 4 5 6 7 6 7 7 6 5 5 5 4 4 4 3 3
7 5 3 2 4 5 5 5 5 5 4 5 3 3 7 8 7 7 8 8 7 6 5 4 3 1 0 2 3 5 6 7 7 8 8 7 6 6 6 5 4 4 3 3
6 7 4 2 1 1 1 3 1 2 4 6 4 5 7 7 7 7 7 8 8 8 7 6 4 2 1 1 2 3 5 6 6 7 7 7 7 5 4 4 5 4 4 3
4 6 5 3 1 2 2 1 4 1 3 4 6 7 7 7 8 9 10 10 10 10 9 7 6 4 3 2 1 2 3 5 5 6 7 7 7 6 5 5 5 4 4 4
1 6 5 5 5 3 3 2 3 3 3 4 6 5 3 5 8 9 11 11 11 10 10 9 7 6 5 4 3 2 3 4 4 5 6 5 6 6 6 6 5 5 5 4
2 4 6 5 2 2 4 3 1 0 2 2 4 5 5 5 6 8 9 10 10 10 10 9 8 7 6 5 4 3 3 3 3 4 5 5 6 6 7 6 6 5 5 5
1 2 4 4 2 2 2 1 3 2 2 2 1 6 6 5 5 7 8 8 9 9 9 9 9 8 8 7 6 5 4 4 3 4 4 5 5 6 7 7 7 7 6 6
1 4 5 6 6 5 2 1 1 1 2 3 3 6 6 5 6 7 7 7 8 9 9 9 9 9 9 8 7 6 5 5 4 4 4 5 5 6 7 7 7 7 7 6
4 4 4 2 1 2 3 2 3 5 4 3 2 5 5 3 4 6 6 7 8 8 9 10 9 9 9 8 7 7 7 6 5 4 4 5 6 6 7 7 7 7 7 7
4 2 1 2 2 1 1 2 3 4 3 3 2 4 4 3 3 4 5 6 8 9 10 10 10 9 9 9 8 8 7 6 5 5 5 5 6 6 6 6 7 7 7 8
2 2 3 3 3 3 2 2 3 3 2 3 4 4 4 3 3 3 5 7 8 9 9 10 10 10 10 9 9 9 8 8 6 6 6 6 6 6 6 7 7 7 7 8
2 4 5 4 4 5 5 3 5 4 3 5 4 3 5 3 2 3 5 6 8 9 9 9 9 9 9 9 9 9 9 8 7 6 6 6 7 7 7 7 7 8 8 8
4 5 3 3 5 8 3 4 2 4 3 2 2 5 4 3 3 3 4 6 7 8 9 9 9 9 9 9 9 9 8 8 7 7 7 7 7 8 8 8 8 9 9 8
4 5 4 5 6 3 4 5 5 5 4 4 4 5 4 3 4 3 4 5 6 7 8 8 9 9 9 9 9 9 9 8 8 8 9 8 8 8 8 8 8 8 8 9
3 5 6 6 6 5 4 6 3 4 5 6 5 5 4 3 4 1 3 4 5 6 7 8 8 8 8 9 9 9 9 9 9 9 10 10 9 9 9 10 10 8 8 9
6 6 7 8 7 2 6 6 6 7 2 7 6 5 4 2 2 3 2 4 5 6 7 7 7 7 8 9 9 9 10 10 11 10 10 10 10 10 10 10 9 9 8 9
6 6 7 6 8 4 8 7 6 2 7 7 6 4 3 1 1 1 2 4 5 6 7 7 7 7 7 8 9 10 10 11 11 11 10 10 11 10 9 9 9 9 8 9
5 3 2 3 1 6 6 4 3 3 5 5 4 4 3 2 1 2 3 4 5 6 7 7 8 8 8 8 9 11 11 11 11 11 11 11 11 10 10 10 9 8 8 8
4 2 4 4 4 4 5 4 4 3 3 3 4 4 3 2 2 3 3 4 5 6 7 7 8 9 9 10 10 11 11 11 12 12 11 11 11 10 10 8 8 8 7 8
3 5 5 5 4 4 6 6 5 4 4 4 4 3 3 3 3 4 4 5 5 6 7 7 8 9 10 11 11 11 12 12 13 13 12 11 10 10 10 9 8 9 9 8
7 8 7 5 6 6 5 6 6 6 5 5 4 3 3 3 4 5 5 5 6 7 8 8 9 10 11 11 12 11 11 12 13 12 11 9 9 9 9 10 10 9 11 12
Wind_Direction
166 182 170 158 162 124 160 161 139 104 100 232 230 288 45 61 103 221 211 214 216 212 192 184 191 195 195 192 194 188 191 182 183 186 233 263 279 294 299 314 328 311 315 321
165 159 144 144 153 161 166 151 123 114 88 270 99 89 80 72 58 34 13 259 215 207 198 185 193 193 200 196 198 196 195 192 192 188 228 269 300 292 311 297 290 304 314 317
138 117 146 170 164 157 144 124 99 95 152 168 164 110 88 78 68 58 41 22 37 193 215 190 197 199 202 203 199 201 201 196 197 192 206 230 242 254 245 264 287 303 304 306
112 137 170 174 155 179 127 85 198 227 192 109 52 106 74 56 65 53 44 38 34 37 19 184 204 211 210 207 203 207 204 207 199 197 214 242 268 290 305 301 297 288 285 297
122 155 171 160 133 209 93 113 161 187 153 130 77 107 84 60 50 38 33 31 28 27 26 35 202 209 209 204 206 214 210 212 209 215 214 238 259 283 290 289 287 290 296 292
115 155 207 98 107 150 148 160 145 179 192 121 53 93 80 50 28 24 29 31 29 29 33 35 53 135 172 190 205 213 216 215 213 219 222 234 255 266 278 282 291 290 286 283
137 143 150 179 160 157 210 211 172 165 161 108 83 83 72 44 28 21 22 29 33 35 33 33 33 40 163 200 212 216 218 220 218 222 228 235 245 258 265 277 281 284 288 286
144 132 134 174 281 143 188 285 282 160 142 126 140 105 85 50 41 36 38 38 38 37 31 27 20 14 359 259 231 233 229 231 227 232 236 237 238 247 262 266 278 279 287 295
135 109 108 98 54 280 170 99 353 43 129 145 122 118 112 59 47 41 40 39 37 32 29 26 23 18 14 355 311 266 250 242 236 239 242 244 245 246 255 258 262 273 275 284
92 125 124 141 161 67 358 104 211 225 180 155 142 136 95 38 30 32 34 33 32 28 28 27 26 21 15 9 357 323 282 270 257 252 246 246 250 248 251 257 260 267 272 278
259 157 143 163 202 138 162 171 169 128 312 238 163 111 55 44 35 31 35 35 31 28 27 26 25 22 17 11 7 353 328 300 285 271 262 251 248 250 249 249 253 254 261 263
307 240 149 124 78 348 324 347 252 254 153 280 237 101 75 68 52 41 37 35 33 30 29 29 26 26 22 15 5 353 342 328 309 290 278 267 262 252 251 251 250 251 254 260
224 230 177 163 165 162 139 82 301 297 203 216 223 120 100 81 64 49 39 35 33 32 29 28 26 25 19 14 6 359 346 335 326 308 289 279 269 264 262 263 259 256 255 255
275 248 267 267 54 140 155 152 210 235 236 213 210 132 125 91 64 46 38 35 32 28 27 24 20 19 13 9 3 357 351 341 329 315 298 289 288 281 272 270 269 263 258 255
267 236 165 58 75 148 175 180 192 227 265 254 166 152 132 110 76 47 38 33 28 24 21 18 13 10 6 4 0 357 351 343 329 314 304 298 295 295 284 274 266 264 261 259
292 214 182 165 147 163 185 207 193 199 208 174 155 143 108 111 94 56 39 29 23 17 12 8 6 3 359 357 354 351 347 341 330 318 312 311 301 297 289 280 273 267 262 260
225 224 230 210 172 218 226 221 204 187 187 195 200 143 138 144 108 51 34 26 18 10 3 359 357 356 351 350 347 344 341 337 330 324 320 316 308 299 291 284 277 268 260 255
247 222 234 229 211 237 81 81 165 168 156 167 114 121 150 146 136 78 40 21 11 3 357 354 349 347 345 346 345 340 339 338 335 331 325 320 310 302 296 290 280 273 268 259
252 229 224 231 233 232 164 168 177 188 176 173 165 146 144 137 170 129 46 11 2 355 351 348 345 342 343 345 343 338 340 339 335 332 324 321 313 305 296 288 280 275 271 266
185 229 231 221 236 242 130 136 173 208 190 160 172 160 158 186 233 81 29 360 355 353 348 344 341 341 344 344 339 335 336 338 335 329 322 319 314 306 297 290 285 278 269 264
178 193 220 227 237 230 106 137 176 212 129 145 170 169 177 208 340 34 3 347 346 346 343 339 337 339 339 336 333 331 333 334 331 323 318 314 312 307 300 295 289 281 272 266
208 198 205 215 227 200 131 164 200 88 104 146 163 171 181 174 55 8 333 332 333 336 337 336 334 335 333 331 329 327 329 327 324 318 313 311 310 308 304 298 291 283 276 267
227 254 247 241 24 81 153 160 102 123 146 153 163 169 179 184 233 305 318 324 326 327 330 329 328 326 326 328 326 321 324 323 320 315 312 309 307 306 305 301 294 285 277 269
179 197 222 220 194 168 173 173 171 175 167 165 170 175 190 220 262 293 308 316 321 323 325 322 319 321 325 325 321 318 320 318 316 314 312 310 308 309 308 305 295 287 281 275
199 192 216 227 194 188 198 195 183 174 174 174 182 197 219 244 266 286 296 305 312 316 316 316 316 318 318 319 319 319 319 318 314 313 310 309 309 306 302 299 294 286 280 279
204 208 217 230 200 206 190 183 188 189 191 194 200 217 237 255 268 280 289 298 302 309 313 313 314 312 313 316 317 318 319 316 313 312 310 307 305 302 299 298 296 280 269 270